FW6692 Weather Reports


Display with metric or nautical units.
time (UTC)temp
F
wind
direction
speed
MPH
gust
MPH
rain 1hr
in
rain 24hr
in
rain mn
in
humidity
%
barometer
mb
20260506101551 67 22 4.0 9.0 0.00 0.00 0.00 88 1013.4
20260506100048 67 34 5.0 10.0 0.00 0.00 0.00 90 1013.4
20260506094610 68 15 6.0 11.0 0.00 0.00 0.00 90 1013.0
20260506093056 70 38 5.0 9.0 0.00 0.00 0.00 93 1012.7
20260506091556 72 62 3.0 5.0 0.00 0.00 0.00 92 1012.6
20260506090051 73 126 1.0 3.0 0.00 0.00 0.00 94 1012.8
20260506084554 73 126 2.0 4.0 0.00 0.00 0.00 94 1012.5
20260506083102 74 126 4.0 8.0 0.00 0.00 0.00 94 1012.4
20260506081551 74 132 4.0 6.0 0.00 0.00 0.00 94 1012.3
20260506073053 74 150 2.0 6.0 0.00 0.00 0.00 93 1012.6
20260506071549 74 199 1.0 3.0 0.00 0.00 0.00 92 1012.8
20260506061552 74 59 3.0 6.0 0.00 0.00 0.00 92 1012.5
20260506044550 74 173 2.0 9.0 0.00 0.00 0.00 90 1011.7
20260506043042 74 179 5.0 10.0 0.00 0.00 0.00 90 1011.6
20260506041550 74 156 5.0 10.0 0.00 0.00 0.00 90 1011.6
20260506040059 73 146 4.0 7.0 0.00 0.00 0.00 90 1011.7
20260506034558 73 148 4.0 6.0 0.00 0.00 0.00 90 1011.7
20260506033047 73 147 4.0 9.0 0.00 0.00 0.00 89 1011.3
20260506031557 73 158 7.0 10.0 0.00 0.00 0.00 89 1011.0
20260506030048 74 141 5.0 8.0 0.00 0.00 0.00 89 1011.1
20260506024543 74 126 4.0 7.0 0.00 0.00 0.00 87 1011.1
20260506023047 75 146 3.0 5.0 0.00 0.00 0.00 86 1010.8
20260506021543 76 153 4.0 6.0 0.00 0.00 0.00 85 1010.2
20260506020049 77 157 3.0 9.0 0.00 0.00 0.00 83 1010.2
20260506014549 78 166 4.0 9.0 0.00 0.00 0.00 82 1009.8
20260506013055 78 164 3.0 8.0 0.00 0.00 0.00 80 1009.6
20260506011556 79 159 4.0 8.0 0.00 0.00 0.00 79 1009.6
20260506010056 80 157 4.0 7.0 0.00 0.00 0.00 77 1009.3
20260506004553 81 177 4.0 10.0 0.00 0.00 0.00 75 1009.3
20260506003049 82 189 3.0 7.0 0.00 0.00 0.00 73 1009.2
20260506001549 83 159 2.0 11.0 0.00 0.00 0.00 71 1009.2
20260506000050 83 161 6.0 11.0 0.00 0.00 0.00 70 1009.3
20260505234559 84 176 4.0 10.0 0.00 0.00 0.00 68 1009.2
20260505233103 84 198 4.0 9.0 0.00 0.00 0.00 70 1009.3
20260505231555 86 184 2.0 9.0 0.00 0.00 0.00 66 1009.3
20260505230047 86 0 1.0 8.0 0.00 0.00 0.00 66 1009.2
20260505224549 87 178 2.0 8.0 0.00 0.00 0.00 64 1009.1
20260505223051 86 178 2.0 10.0 0.00 0.00 0.00 67 1009.3
20260505221549 85 163 5.0 12.0 0.00 0.00 0.00 67 1009.1
20260505220049 86 143 6.0 13.0 0.00 0.00 0.00 65 1009.3
20260505214550 86 192 3.0 10.0 0.00 0.00 0.00 66 1009.1
20260505213043 87 198 4.0 10.0 0.00 0.00 0.00 64 1009.3
20260505211547 86 205 4.0 9.0 0.00 0.00 0.00 68 1009.6
20260505210050 86 168 4.0 12.0 0.00 0.00 0.00 67 1009.8
20260505204549 86 192 6.0 11.0 0.00 0.00 0.00 67 1009.8
20260505203049 88 151 4.0 9.0 0.00 0.00 0.00 66 1009.9
20260505201556 87 146 2.0 10.0 0.00 0.00 0.00 65 1010.0
20260505200049 86 167 3.0 10.0 0.00 0.00 0.00 68 1010.0
20260505194605 87 155 3.0 10.0 0.00 0.00 0.00 66 1010.2
20260505193048 87 186 1.0 8.0 0.00 0.00 0.00 70 1010.2
20260505191544 85 0 2.0 13.0 0.00 0.00 0.00 70 1010.3
20260505190047 86 159 3.0 10.0 0.00 0.00 0.00 67 1010.5
20260505184552 85 222 3.0 10.0 0.00 0.00 0.00 71 1010.9
20260505183050 86 207 3.0 13.0 0.00 0.00 0.00 69 1011.1
20260505181552 85 221 4.0 11.0 0.00 0.00 0.00 70 1011.4
20260505180050 84 193 3.0 16.0 0.00 0.00 0.00 71 1011.5
20260505174556 83 198 4.0 14.0 0.00 0.00 0.00 72 1011.7
20260505173051 82 157 3.0 15.0 0.00 0.00 0.00 74 1011.7
20260505171553 82 256 4.0 16.0 0.00 0.00 0.00 74 1011.7
20260505170049 81 215 3.0 12.0 0.00 0.00 0.00 75 1012.1
20260505164614 79 241 4.0 18.0 0.00 0.00 0.00 77 1011.8
20260505163053 79 223 5.0 14.0 0.00 0.00 0.00 77 1012.0
20260505161550 79 251 4.0 14.0 0.00 0.00 0.00 76 1011.9
20260505153049 76 227 6.0 14.0 0.00 0.00 0.00 82 1012.1
20260505151550 75 228 7.0 18.0 0.00 0.00 0.00 82 1012.0
20260505130108 70 224 5.0 10.0 0.00 0.00 0.00 91 1011.3
20260505124600 70 0 2.0 9.0 0.00 0.00 0.00 92 1010.9
20260505123050 69 220 1.0 7.0 0.00 0.00 0.00 92 1010.8
20260505121548 69 211 1.0 8.0 0.00 0.00 0.00 92 1010.5
20260505120106 68 207 1.0 7.0 0.00 0.00 0.00 92 1010.5
20260505114549 68 0 1.0 7.0 0.00 0.00 0.00 92 1010.4
20260505113050 68 187 1.0 13.0 0.00 0.00 0.00 92 1010.1
20260505111542 68 186 1.0 7.0 0.00 0.00 0.00 92 1010.1
20260505110116 68 210 1.0 8.0 0.00 0.00 0.00 91 1010.1